sat.trackr.live / text

‹ back to catalog

NINGXIA-1 8

NORAD 49020 · 2021-064C

PAYLOAD ACTIVE UNKNOWN

§ Identity

Operator
Country
PRC
Launch date
2021-07-09
Launch site
TAISC
Launch vehicle
Mass (kg)
RCS (m²)

External: N2YO · Heavens-Above · Gunter

§ Orbital elements

Epoch: 2026-05-25T04:41:24.918720Z

Period
102.23 min
Inclination
44.9958°
Eccentricity
0.0007381
Mean motion
14.08533506 rev/d
Perigee alt
859.0 km
Apogee alt
869.7 km
Semi-major
7,242.5 km
B*
-9.5433e-6
RAAN
329.9220°
Arg perigee
137.7345°
Mean anomaly
222.4061°
Rev number
25,098

§ Raw data

NINGXIA-1 81 49020U 21064C   26145.19542730 -.00000149  00000+0 -95433-5 0  99912 49020  44.9958 329.9220 0007381 137.7345 222.4061 14.08533506250988

JSON: /api/v1/satellites/49020 · /tle

For live sub-satellite position, see the globe view (requires WebGL).

§ Visibility from observer

Set your observer location to see the next 7 days of passes ≥ 10°. The values pass through the URL so the page stays shareable.

No JS? Fill the form by hand. The geolocation button needs JavaScript.